Location: Julian California
(33.0790°N, 116.6010°W)
Time: 13:41:51
(UTC-07:00)

Daily predictions for brighter satellites

Satellite Brightness Start Highest point End
(mag) Time Altitude Azimuth Time Altitude Azimuth Time Altitude Azimuth
Atlas Centaur 2 2.5 19:41:12 10° WSW 19:46:46 68° S 19:53:54 10° E
Cosmos 2322 4.2 19:43:26 10° S 19:48:35 37° ESE 19:53:45 10° NE
Cosmos 1733 Rocket 4.1 19:47:05 10° NNE 19:50:56 28° ENE 19:54:45 10° SE
SL-16 R/B 2.9 19:46:01 10° SSW 19:51:37 62° WNW 19:57:14 10° NNE
USA 267 3.4 19:45:17 10° NE 19:51:50 84° NW 19:58:23 10° SW
OAO 3 Rocket 3.2 19:51:58 10° WNW 19:56:49 87° NNE 20:01:44 10° ESE
FREGAT/IRIS 3.9 19:54:41 10° S 19:57:35 44° W 20:00:29 10° NNW
SJ-6B 3.3 19:54:24 10° S 19:58:19 68° W 20:02:22 10° NNW
Cosmos 1862 Rocket 4.0 19:54:25 10° SSE 19:58:37 43° E 20:02:52 10° NNE
Cosmos 2142 Rocket 4.5 19:52:42 10° S 19:58:49 85° E 20:05:01 10° N
CZ-2D R/B 3.8 19:57:16 10° SE 20:00:54 40° ENE 20:04:33 10° N
Meteor 2-10 Rocket 4.4 19:59:46 10° SSE 20:05:00 36° E 20:10:12 10° NNE
Spot 2 Rocket 3.6 20:01:50 10° SSE 20:06:48 59° ENE 20:11:48 10° N
Cosmos 2026 Rocket 4.0 20:01:34 10° N 20:07:42 65° E 20:13:42 10° SSE
Lacrosse 4 Rocket 2.2 20:09:10 10° NW 20:13:26 55° WSW 20:17:46 10° S
Cosmos 2333 Rocket 3.9 20:13:47 12° ESE 20:14:42 12° E 20:16:52 10° ENE
Cosmos 1503 Rocket 4.2 20:09:56 10° NNW 20:15:08 72° WSW 20:20:16 10° S
Helios 1B rocket 2.9 20:13:06 10° NNE 20:16:58 39° E 20:20:48 10° S
ALOS 3.4 20:12:46 10° S 20:17:14 46° W 20:21:43 10° NNW
USA 186 1.7 20:19:50 13° SSE 20:22:09 50° ENE 20:25:04 10° N
SAR-Lupe-4 4.5 20:22:08 17° SE 20:24:17 31° ENE 20:27:29 10° N
Resurs 1-3 3.6 20:21:46 10° SSE 20:26:09 87° WSW 20:30:33 10° NNW
Meteor 1-29 3.5 20:23:37 10° NNE 20:26:50 37° E 20:30:01 10° SSE
Envisat 3.5 20:23:08 13° SE 20:27:11 39° ENE 20:31:53 10° N
Cosmos 2219 Rocket 3.3 20:23:33 10° SSE 20:27:39 21° E 20:31:45 10° NE
Cosmos 1933 3.7 20:31:18 10° SSW 20:35:18 67° W 20:39:18 10° N
SEDSat Delta rocket 3.4 20:33:28 10° W 20:38:14 65° S 20:41:39 23° ESE
SAR-Lupe-1 4.4 20:39:58 27° SE 20:41:29 44° ENE 20:44:54 10° N
ERS-1 Rocket 4.1 20:41:58 21° E 20:43:40 25° ENE 20:47:44 10° NNE
CZ-4B DEB 4.4 20:42:45 24° SSE 20:44:44 68° ENE 20:48:15 10° N
Spot 1 4.4 20:42:38 15° SSE 20:46:53 74° ENE 20:51:54 10° N
Cosmos 1867 3.5 20:43:06 10° NNW 20:48:34 71° ENE 20:51:40 26° SE
Cosmos 1862 4.1 20:45:35 10° NNW 20:49:30 51° W 20:53:25 10° S
Tiangong 1 3.2 20:48:58 10° SSW 20:49:30 14° SSW 20:49:30 14° SSW
Cosmos 2263 Rocket 2.7 20:46:51 10° NNW 20:52:19 58° WSW 20:57:26 12° S
Cosmos 1782 4.3 20:54:00 21° ENE 20:54:00 21° ENE 20:56:15 10° NE
Cosmos 2221 Rocket 3.8 20:51:30 26° SSE 20:53:41 48° E 20:57:57 10° NNE
Sakura Rocket 3.1 20:50:44 10° WSW 20:54:12 43° S 20:55:01 37° SE
Cosmos 1825 4.4 20:52:50 10° NW 20:55:58 24° W 20:59:04 10° SW
Cosmos 2266 Rocket 4.2 20:51:08 10° N 20:57:20 55° E 21:00:58 25° SSE
Meteor 1-26 Rocket 4.3 20:54:25 10° S 21:00:06 83° W 21:05:56 10° N
NOSS 3-1 (C) 3.2 20:57:27 10° SSW 21:03:00 65° ESE 21:09:04 10° NE
Cosmos 2360 Rocket 3.9 21:04:36 10° SW 21:09:40 34° WNW 21:14:47 10° N
CZ-4B DEB 3.0 21:10:53 54° SW 21:11:11 57° W 21:14:09 10° NNW
Resurs 01 Rocket 4.0 21:09:06 10° SW 21:12:26 21° W 21:15:47 10° NW
Cosmos 1939 Rocket 2.9 21:12:42 39° S 21:14:06 73° WSW 21:18:05 10° NNW
Cosmos 1908 Rocket 3.7 21:09:49 10° NNW 21:14:08 71° W 21:16:05 32° S
Helios 1A 3.9 21:11:47 20° SSW 21:14:29 47° W 21:18:36 10° NNW
SJ-11-01 4.4 21:14:35 30° S 21:16:52 70° WSW 21:21:31 10° NNW
FALCON 9 R/B 2.1 21:15:16 10° WNW 21:16:32 28° WNW 21:16:32 28° WNW
COSMOS 2428 3.0 21:13:42 10° SSW 21:19:19 67° WNW 21:25:00 10° NNE
ATLAS 5 CENTAUR R/B 2.9 21:13:28 10° NW 21:19:33 57° WSW 21:23:11 26° S
YAOGAN 6 2.6 21:20:29 68° NE 21:20:29 68° NE 21:23:48 10° N
NOSS 3-1 (A) 3.2 21:15:19 10° SSW 21:20:52 64° ESE 21:26:57 10° NE
Cosmos 1606 4.3 21:23:21 24° NE 21:23:21 24° NE 21:25:08 10° NNE
ARGOS 3.9 21:22:46 33° ENE 21:22:59 33° ENE 21:27:44 10° N
Cosmos 1980 4.1 21:23:56 40° E 21:23:56 40° E 21:28:35 10° NE
Okean 1-7 3.1 21:22:12 36° SSW 21:23:58 78° W 21:28:22 10° N
NOAA 11 4.5 21:23:10 44° E 21:23:58 47° ENE 21:29:11 10° N
Cosmos 1782 Rocket 3.5 21:24:42 10° N 21:29:06 86° W 21:29:35 70° S
Cosmos 1777 Rocket 3.9 21:23:55 10° NNW 21:29:11 75° ENE 21:30:02 60° SE
Cosmos 1844 4.1 21:26:00 10° N 21:31:19 42° ENE 21:31:42 41° ENE
Atlas Centaur 2 2.7 21:29:42 10° W 21:36:09 65° S 21:38:05 49° SE
OAO 1 Rocket 4.3 21:32:15 10° W 21:37:35 85° NNW 21:38:34 60° ENE
Meteor 1-10 Rocket 4.2 21:36:26 50° S 21:38:02 77° E 21:43:54 10° NNE
OAO 3 Rocket 4.1 21:35:42 10° W 21:39:50 36° SW 21:39:50 36° SW
USA 245 4.3 21:42:49 51° ENE 21:42:49 51° ENE 21:47:09 10° N
Milstar 3 3.6 21:37:45 10° W 21:44:31 33° SSW 21:45:23 32° S
MetOp-A 3.9 21:45:01 74° ESE 21:45:21 77° ENE 21:50:42 10° N
Meteor 1-25 Rocket 4.3 21:43:49 10° NNW 21:49:20 70° W 21:50:28 54° SSW
Cosmos 2237 Rocket 2.2 21:50:20 63° ENE 21:50:20 63° ENE 21:55:23 10° NNE
Nadezhda 2 Rocket 4.4 21:43:44 10° N 21:50:11 90° NW 21:51:35 58° S
Okean 2 Rocket 3.3 21:45:53 10° NNW 21:50:07 67° WNW 21:50:07 67° WNW
Cosmos 1844 Rocket 2.5 21:47:22 10° NNW 21:52:57 90° NW 21:53:10 84° SSE
MOS 1-B Rocket 3.8 21:53:28 64° E 21:53:33 65° ENE 21:59:06 10° N
Meteor 1-20 Rocket 4.3 21:48:05 10° NNW 21:53:43 73° W 21:54:38 60° SSW
Cosmos 2333 Rocket 2.4 21:55:34 33° SW 21:58:14 70° WNW 22:03:59 10° NNE
Nimbus 7 Rocket 4.2 21:52:46 10° NNE 21:58:46 79° ESE 21:58:59 78° SE
Cosmos 2278 Rocket 3.0 21:54:44 10° N 21:59:16 38° NE 21:59:16 38° NE
CZ-4C R/B 3.4 21:54:17 10° NNW 22:01:12 44° NE 22:02:18 41° ENE
S3M 4.0 22:03:20 61° ENE 22:03:20 61° ENE 22:08:49 10° NNE
USA 234 3.2 22:04:59 62° E 22:05:47 68° NE 22:12:16 10° NW
H-2A R/B 3.6 14:17:25 10° SW 22:06:31 71° S 22:08:56 54° SE
Cosmos 2219 Rocket 3.3 22:06:00 10° SW 22:11:13 41° WNW 22:16:30 10° N
SPOT 5 3.6 22:16:20 48° NW 22:16:20 48° NW 22:19:44 10° NNW
SeaSat 1 3.6 22:18:21 35° NNE 22:18:21 35° NNE 22:21:35 10° N
ERS-1 Rocket 4.4 22:21:58 29° WSW 22:22:16 29° W 22:26:37 10° NW
H-2A R/B 3.0 22:27:57 40° N 22:27:57 40° N 22:31:05 10° N
H-2A R/B 4.4 22:41:39 20° N 22:41:39 20° N 22:43:03 10° N
Cosmos 1745 Rocket 4.3 22:33:25 10° N 22:38:38 63° N 22:38:38 63° N
Terra 3.8 22:50:16 25° N 22:50:16 25° N 22:52:15 10° N
ATLAS 2AS CENTAUR R/B 3.4 23:14:13 55° NNE 23:14:13 55° NNE 23:20:16 10° NNE
SL-16 R/B 3.8 23:16:59 30° N 23:16:59 30° N 23:19:55 10° N
ATLAS 3B R/B 4.0 23:33:22 10° NNW 23:37:42 32° NNE 23:37:42 32° NNE
CZ-4C R/B 4.2 23:42:57 10° NW 23:47:30 32° WNW 23:47:30 32° WNW
